Simultaneous Nadir Overpasses (SNOs) Predictions

Prediction of SNOs between GOES-16 and NOAA-20 Satellite Orbit:

Table of predicted SNOs for the next 14.0 days since TLE Epoch: 5/7/2022
Index Date Time (GOES-16) GOES-16 Lat,Lon NOAA-20 Lat,Lon Distance(km) Time Diff (sec)
1 05/07/2022 18:21:01 0.03, -75.20 0.23, -74.24 108.69 80
2 05/09/2022 06:45:29 -0.02, -75.20 0.97, -79.51 491.16 80
3 05/10/2022 06:24:04 -0.02, -75.21 -0.06, -74.98 25.85 80
4 05/12/2022 18:29:56 0.02, -75.24 -0.10, -75.76 59.77 80
5 05/13/2022 18:08:32 0.02, -75.25 0.92, -71.23 457.73 80
6 05/15/2022 06:32:59 -0.02, -75.27 0.27, -76.50 141.05 80
7 05/16/2022 06:11:34 -0.02, -75.28 -0.76, -71.98 376.38 80
8 05/17/2022 18:36:11 0.02, -75.29 -0.42, -77.28 226.30 80
9 05/18/2022 18:14:46 0.02, -75.31 0.61, -72.76 291.36 80
10 05/20/2022 06:39:14 -0.01, -75.33 0.58, -78.02 306.99 80
